www.pogodaiklimat.ru

Погода и климат >> Архив погоды >> Турция >> Газиантеп


ПОГОДА в Газиантепе

  • Прогноз погоды в Газиантепе
  • Монитор погоды в Газиантепе

АРХИВ ПОГОДЫ в Газиантепе

Время (UTC), дата Ветер
(напр.,м/с)
 
Видим.   Явления Облачность Т
(С)
Тd
(С)
f
(%)
Тe
(С)
Тes
(С)
Комфортность P
(гПа)
Po
(гПа)
Тmin
(С)
Tmax
(С)
R
(мм)
R24
(мм)
S
(см)
06 10.07 С 6
{10}
10 км ясно +30.0 +11.0 31 +30 +34 жарко 1000.6 925.8 +21.7
09 10.07 С 5
{10}
10 км ясно +34.2 +14.6 31 +36 +48 душно 999.3 924.8
12 10.07 СЗ 2
{11}
10 км ясно +35.4 +15.5 31 +37 +52 опасность
солнечного
удара
997.8 923.3
15 10.07 СЗ 2
{7}
10 км ясно +35.8 +15.5 30 +38 +40 очень
душно
996.9 922.5
18 10.07 З 8
{11}
10 км ясно +29.5 +10.8 31 +30 +30 жарко 997.7 923.0 +36.7
21 10.07 СЗ 5
{10}
10 км ясно +27.5 +8.9 31 +28 +28 жарко 998.0 923.5
00 11.07 С 4
{10}
10 км ясно +28.2 +9.5 31 +28 +28 жарко 996.7 922.6
03 11.07 СВ 3
{8}
10 км ясно +25.2 +7.1 31 +25 +25 комфорт 997.4 922.9
06 11.07 СЗ 6
{11}
10 км ясно +32.2 +13.0 31 +33 +37 жарко 998.3 923.8 +23.5
09 11.07 З 7
{11}
10 км ясно +34.9 +15.2 31 +37 +43 очень
душно
997.9 923.5
12 11.07 З 7-12
{13}
10 км ясно +35.3 +15.4 31 +37 +41 очень
душно
996.2 922.1
15 11.07 З 8
{13}
10 км ясно +33.6 +14.0 31 +35 +35 душно 996.3 921.6
18 11.07 З 10-15
{15}
10 км ясно +28.4 +9.6 31 +28 +28 жарко 997.8 923.2 +36.1
21 11.07 З 5
{15}
10 км ясно +25.9 +7.4 31 +26 +26 жарко 999.2 924.5
00 12.07 З 2
{15}
10 км ясно +22.6 +5.0 32 +23 +23 комфорт 999.1 924.1
03 12.07 З 5
{8}
10 км ясно +22.6 +5.5 33 +23 +23 комфорт 1000.0 924.7
06 12.07 З 5
{9}
10 км ясно +28.2 +10.4 33 +29 +34 жарко 1000.6 925.3 +22.3
09 12.07 ЮЗ 5
{9}
10 км 3/3 1200 м
[Cu hum]
+30.6 +12.5 33 +31 +39 жарко 1000.8 925.5
12 12.07 ЮЗ 7
{13}
10 км 4/4 1200 м
[Cu hum]
+31.8 +13.4 33 +33 +35 жарко 1000.0 924.5
15 12.07 ЮЗ 7
{12}
10 км 4/4 1200 м
[Cu hum]
+29.9 +12.0 33 +31 +31 жарко 1000.0 924.3
18 12.07 ЮЗ 6
{13}
10 км ясно +24.9 +7.8 34 +25 +25 комфорт 1001.1 925.3 +32.8
21 12.07 З 2
{9}
10 км ясно +21.9 +5.4 34 +22 +22 комфорт 1001.8 925.9
00 13.07 З 1
{9}
10 км ясно +21.5 +5.6 35 +22 +22 комфорт 1001.6 925.8
03 13.07 С 2
{8}
10 км ясно +21.4 +5.7 36 +22 +22 комфорт 1002.3 926.2
06 13.07 СЗ 6
{9}
10 км ясно +27.4 +10.7 35 +28 +32 жарко 1002.7 926.7 +20.4
09 13.07 В 1
{9}
10 км 4/4 1200 м
[Cu med, cong]
+30.0 +12.7 35 +31 +45 жарко 1002.4 926.4
12 13.07 З 9
{13}
10 км 5/5 1200 м
[Cu med, cong]
+28.3 +11.4 35 +29 +30 жарко 1001.7 925.5
15 13.07 З 7
{17}
10 км 5/5 1200 м
[Cu med, cong]
+28.0 +11.2 35 +29 +29 жарко 1002.4 926.1
18 13.07 З 6
{17}
10 км ясно +24.6 +8.2 35 +25 +25 комфорт 1002.8 926.8 +32.2
21 13.07 З 5
{8}
10 км ясно +22.2 +6.4 36 +23 +23 комфорт 1003.0 927.0
00 14.07 З 1
{8}
10 км ясно +21.1 +5.2 35 +22 +22 комфорт 1003.3 926.9
03 14.07 СВ 1
{7}
10 км ясно +21.1 +5.5 36 +22 +22 комфорт 1003.3 926.9
06 14.07 СЗ 3
{7}
10 км ясно +27.0 +10.4 35 +28 +36 жарко 1003.6 927.5 +19.3
09 14.07 ЮЗ 2
{8}
10 км 3/3 1200 м
[Cu hum]
+30.3 +13.3 35 +32 +46 жарко 1002.9 926.9
12 14.07 З 4
{9}
10 км 5/5 1200 м
[Cu hum]
+31.5 +14.4 35 +33 +38 жарко 1001.6 925.7
15 14.07 З 6
{10}
10 км 1/1 1200 м
[Cu hum]
+30.0 +13.1 35 +31 +32 жарко 1001.2 925.2
18 14.07 З 5
{10}
10 км ясно +24.9 +8.9 36 +25 +25 комфорт 1001.8 925.8 +31.8
21 14.07 З 4
{8}
10 км ясно +21.4 +6.2 37 +22 +22 комфорт 1001.8 925.8
00 15.07 З 3
{8}
10 км ясно +20.2 +5.4 38 +21 +21 комфорт 1000.9 925.0
03 15.07 ЮЗ 1
{6}
10 км ясно +18.5 +3.8 38 +20 +21 1002.1 925.6
06 15.07 З 5
{7}
10 км 3/3 1200 м
[Cu med, cong]
+23.5 +8.7 39 +24 +28 комфорт 1002.9 926.4 +17.1
09 15.07 ЮЗ 6
{10}
10 км 4/4 1200 м
[Cu hum]
+27.2 +11.7 38 +28 +34 жарко 1002.6 926.2
12 15.07 З 8
{13}
10 км 4/4 1200 м
[Cu hum]
+29.0 +13.2 38 +31 +32 жарко 1001.9 925.6
15 15.07 З 7
{12}
10 км 4/4 1200 м
[Cu hum]
+27.6 +12.1 38 +29 +29 жарко 1002.2 925.5
18 15.07 З 6
{12}
10 км ясно +24.4 +9.3 38 +25 +25 комфорт 1003.0 926.4 +29.3
21 15.07 З 5
{10}
10 км ясно +22.5 +7.7 39 +24 +24 комфорт 1003.0 926.7
00 16.07 З 3
{10}
10 км ясно +20.7 +6.6 40 +22 +22 комфорт 1002.5 926.2
03 16.07 З 4
{6}
10 км ясно +19.9 +5.9 40 +21 +21 комфорт 1003.3 926.7
06 16.07 СЗ 7
{11}
10 км ясно +27.1 +11.8 39 +28 +31 жарко 1003.1 927.0 +19.1
09 16.07 СЗ 5-11
{11}
10 км 3/3 1200 м
[Cu hum]
+30.5 +14.8 39 +33 +40 душно 1002.8 926.9
12 16.07 ЮЗ 5
{11}
10 км 5/5 1200 м
[Cu med, cong]
+31.5 +15.7 39 +34 +38 душно 1001.6 925.7
15 16.07 ЮЗ 7
{11}
10 км 3/3 1200 м
[Cu hum]
+29.2 +13.6 38 +31 +31 жарко 1001.3 925.0
18 16.07 З 4
{11}
10 км ясно +25.2 +10.2 39 +26 +26 жарко 1002.0 926.1 +31.8
21 16.07 З 3
{7}
10 км ясно +21.0 +6.8 40 +23 +23 комфорт 1002.2 926.2
00 17.07 З 3
{7}
10 км ясно +20.7 +6.6 40 +22 +22 комфорт 1001.0 925.1
03 17.07 штиль 0
{5}
10 км ясно +20.1 +6.2 40 +21 +21 комфорт 1001.2 925.0

 

Местоположение метеостанции Газиантеп (Турция): широта 37.08 долгота 37.37 высота над уровнем моря 701 м.

В архиве по умолчанию представлена погода в Газиантепе за последнюю неделю. Архивные данные за месяц целиком и за предыдущие месяцы, начиная с января 2011 года, Вы можете получить, выбрав интересующий диапазон дат из раскрывающегося списка и нажав кнопку "Ввод!".


*Определитесь, кто Вы:
робот инопланетянин человек

Внимание! Время в таблицах - всемирное. Для получения местного времени необходимо прибавить поправку, которая равна 2 ч.

Смотрите также архив погоды в соседних городах и на ближайших метеорологических станциях:

Погода в Газиантепе (Турция) (3 км)
Погода в Килисе (Турция) (46 км)
Погода в Кахраманмараше (Турция) (70 км)
Погода в Османие (Турция) (99 км)
Погода в Алеппо (Сирия) (101 км)
Погода в Адыямане (Турция) (110 км)
Погода в Искендеруне (Турция) (120 км)
Погода в Шанлыурфе (Турция) (124 км)
Погода в Аэропорту GAP (Турция) (141 км)
Погода в Эт-Телль-эль-Абьяде (Сирия) (147 км)

Пояснения к столбцам:

Ветер - указаны скорость ветра в м/с - средняя за 10 мин, порывы в срок и между сроками (в фигурных скобках) и направление, откуда дует ветер: С - северный, СВ - северо-восточный, В - восточный, ЮВ - юго-восточный, Ю - южный, ЮЗ - юго-западный, З - западный, СЗ - северо-западный.
Видимость - горизонтальная дальность видимости в метрах или километрах. При видимости от 1 до 10 км при отсутствии осадков обычно наблюдается дымка, при ухудшении видимости до 1 км и менее - туман. В сухую погоду видимость может ухудшаться дымом, пылью или мглою.
Явления - указаны атмосферные явления, наблюдавшиеся в срок или в последний час перед сроком; фигурными скобками обозначены явления, наблюдавшиеся между сроками (за 1-3 часа до срока); квадратными скобками обозначены град или гололедные отложения с указанием их диаметра в мм.
Облачность - указаны через наклонную черту общая и нижняя облачность в баллах и высота нижней границы облаков в метрах; квадратными скобками обозначены формы облаков: Ci - перистые, Cs - перисто-слоистые, Cc - перисто-кучевые, Ac - высококучевые, As - высокослоистые, Sc - слоисто-кучевые, Ns - слоисто-дождевые, Cu - кучевые, Cb - кучево-дождевые. Подробнее классификацию облаков см. в Атласе облаков (PDF).
T - Температура воздуха - температура, измеренная на высоте 2 м над землей.
Td - Температура точки росы - температура, при понижении до которой содержащийся в воздухе водяной пар достигнет насыщения.
f - Относительная влажность воздуха - влажноcть воздуха, измеренная на высоте 2 м над землей.
Te - Эффективная температура - температура, которую ощущает одетый по сезону человек в тени. Характеристика душности погоды. При расчете учитывается влияние влажности воздуха и скорости ветра на теплоощущения человека.
Tes - Эффективная температура на солнце - температура, которую ощущает человек, с поправкой на солнечный нагрев. Характеристика знойности погоды. Зависит от высоты солнца над горизонтом, облачности и скорости ветра. Ночью, в пасмурную погоду, а также при ветре 12 м/с и более поправка равна нулю.
P - Атмосферное давление - приведенное к уровню моря атмосферное давление.
Po - Атмосферное давление - измеренное на уровне метеостанции атмосферное давление.
Tmin - Минимальная температура - минимум температуры воздуха на высоте 2 м над землей.
Tmax - Максимальная температура - максимум температуры воздуха на высоте 2 м над землей.
R - Количество осадков - Количество выпавших осадков за период времени, мм. При наведении курсора мыши на число - период времени, за который выпало указанное количество осадков.
R24 - Количество осадков - Количество выпавших осадков за 24 часа, мм.
S - Снежный покров - Высота снежного покрова, см. При наведении курсора мыши на число - состояние снежного покрова и степень покрытия местности в баллах.